Regional Weather Roundup
Issued by NWS Jackson, KY

Home | Current Version | Previous Version | Graphics & Text | Print | Product List | Glossary On
Versions: 1 2 3 4 5 6 7 8 9 10 11 12 13 14 15 16 17 18 19 20 21 22 23 24 25 26 27 28 29 30 31 32 33 34 35 36 37 38 39 40 41 42 43 44 45 46 47 48 49 50
000
ASUS43 KJKL 270219
RWRJKL

EAST KENTUCKY HOURLY WEATHER ROUNDUP
NATIONAL WEATHER SERVICE JACKSON KY
900 PM EST WED NOV 26 2014

NOTE: "FAIR" INDICATES FEW OR NO CLOUDS BELOW 12,000 FEET WITH
NO SIGNIFICANT WEATHER AND/OR OBSTRUCTIONS TO VISIBILITY.

* THESE REPORTS ARE NOT UNDER NWS QUALITY CONTROL AND MAY NOT
  REPORT WEATHER SUCH AS PRECIPITATION AND FOG.

KYZ079-080-083-085-087-088-110-112-115-119-120-270300
...EASTERN KENTUCKY...

CITY           SKY/WX    TMP DP  RH WIND       PRES   REMARKS
JACKSON        CLOUDY    38  27  64 NE3       29.98F
LONDON         CLOUDY    40  26  57 CALM      29.99S
SOMERSET*      CLOUDY    37  28  70 CALM      30.02R
MONTICELLO*    CLOUDY    41  28  60 W9        30.05R
HARLAN APT*    CLOUDY    39  27  60 CALM      29.98S
HAZARD APT*    CLEAR     41  28  60 CALM      29.99S
BLACK MTN*       N/A     32  23  69 SW5         N/A  WCI  27
PIKEVILLE APT* PTCLDY    39  28  65 N3        29.98F
BIG SANDY*     CLOUDY    39  29  67 NE3       29.99F
MOREHEAD APT*  MOCLDY    36  28  75 NE5       30.03S WCI  32
ASHLAND*       CLEAR     37  27  65 NE5       30.01S WCI  34
$$

KYZ035-036-041-042-044-050-067-078-099-270300
...CENTRAL KENTUCKY...

CITY           SKY/WX    TMP DP  RH WIND       PRES   REMARKS
MT STERLING*   CLOUDY    36  30  80 E3        30.02F
FLEMING/MASON* PTCLDY    34  28  80 NE6       30.03S WCI  29
DANVILLE*      CLOUDY    36  32  87 CALM      30.02R
RICHMOND*      CLOUDY    37  30  75 CALM      30.00S
LEXINGTON      CLOUDY    34  29  82 N3        30.02R
FRANKFORT      CLOUDY    36  28  73 N3        30.02R
$$

KYZ091>093-OHZ055-061-077-WVZ005-015-034-035-042-270300
...SOUTHERN OHIO/WEST VIRGINIA...

CITY           SKY/WX    TMP DP  RH WIND       PRES   REMARKS
COVINGTON      CLOUDY    34  24  67 NE9       30.04R WCI  27
COLUMBUS       CLOUDY    34  26  72 N6        30.04S WCI  29
DAYTON         CLOUDY    30  24  78 N7        30.06S WCI  23
WILMINGTON     CLOUDY    31  24  75 N8        30.03S WCI  23
HUNTINGTON     MOCLDY    37  32  82 CALM      30.01S
CHARLESTON     FOG       35  35 100 CALM      30.01F VSB 1/2
PINEVILLE*     CLOUDY    38  38 100 MISG      30.05S
BECKLEY        CLOUDY    33  31  92 SW3       29.97S
BLUEFIELD      FOG       32  30  92 CALM      29.97S VSB 1/2
$$

VAZ002-007-008-TNZ017-027-036-066-071-270300
...SOUTHWEST VIRGINIA/EAST TENNESSEE...

CITY           SKY/WX    TMP DP  RH WIND       PRES   REMARKS
WISE*          CLOUDY    37  28  70 CALM      29.97F
JONESVILLE*    CLOUDY    37  30  75 CALM      30.01S
ABINGDON*      CLOUDY    35  35  99 CALM      29.99F FOG
BRISTOL        CLOUDY    37  36  96 CALM      30.00F
KNOXVILLE      CLOUDY    44  28  53 S5        30.01F
OAK RIDGE      CLOUDY    46  25  43 CALM      30.02S
CROSSVILLE     LGT RAIN  40  31  70 W6        30.01R
NASHVILLE      CLOUDY    41  39  93 CALM      30.02F
$$

...KEY TO REMARKS...
VSB - VISIBILITY IN MILES
WCI - WIND CHILL INDEX
HX  - HEAT INDEX

$$



USA.gov is the U.S. government's official web portal to all federal, state and local government web resources and services.